Wind_Speed
27 27 28 29 32 34 34 35 35 35 36 38 40 42 45 46 47 49 50 50 51 52 52 52 52 51 52 51 51 51 51 51 51 50 48 47 46 44 43 41 40 38 36 35 34 33 32 31 30 28 26 23 20 17 13 10 8 6 5 4 3 2 3 4 5 5 5 4 4 4 5 6 6 7 8 8 8 8 9 10 11 11 12 14 14
27 28 28 28 31 33 33 33 34 35 37 39 41 43 45 46 47 48 48 48 48 47 47 46 45 45 47 46 46 47 48 49 49 49 49 48 47 45 45 44 43 42 40 39 38 37 36 36 35 34 33 32 31 29 26 23 19 15 12 9 8 6 6 6 6 6 6 6 6 7 7 6 7 7 8 9 10 11 11 12 12 13 14 15 15
28 28 30 31 32 33 32 32 33 35 37 39 40 42 43 44 44 44 43 42 41 40 40 38 36 37 38 37 37 38 39 40 41 42 44 44 44 43 44 44 44 43 43 41 40 40 39 39 39 38 38 37 37 36 35 33 31 28 25 21 18 16 14 12 11 11 10 10 10 10 10 9 9 10 10 11 11 12 13 13 14 15 16 16 16
27 28 30 32 32 32 32 31 31 34 37 38 39 40 40 40 39 38 37 37 35 34 34 32 31 32 33 32 31 31 31 32 32 34 37 39 39 39 41 42 41 42 42 41 40 40 40 39 40 40 40 39 39 38 37 37 37 36 35 33 31 29 27 26 24 23 22 21 21 20 20 20 19 19 18 18 18 17 17 17 17 17 17 16 16
26 26 29 31 31 31 31 30 31 33 35 36 37 37 36 34 33 33 32 32 30 28 28 27 27 29 29 28 28 27 28 28 29 31 33 34 34 35 37 38 39 39 39 40 39 39 38 38 38 38 38 38 37 37 36 36 36 35 35 35 36 36 36 35 35 35 35 34 34 34 34 34 34 33 33 33 33 33 33 33 34 34 33 32 32
25 25 28 30 30 30 29 29 30 30 32 33 33 32 30 29 27 27 27 26 23 22 22 23 24 25 25 24 24 25 25 26 27 29 31 33 33 33 35 35 35 36 37 38 38 38 37 37 37 37 37 36 36 35 35 34 34 34 34 34 34 34 35 35 36 36 36 36 36 36 36 36 36 36 36 36 36 36 37 37 37 38 38 38 38
26 25 27 28 29 28 27 27 27 27 28 28 27 26 24 23 22 22 21 19 17 17 18 20 20 21 21 21 21 21 22 23 25 27 30 31 31 32 34 34 33 33 34 35 36 36 37 37 37 37 37 37 36 35 34 33 33 33 32 32 32 32 33 32 32 33 33 33 33 33 33 33 33 34 34 34 35 35 35 36 37 37 37 38 38
25 25 25 26 27 26 25 24 23 23 23 22 20 20 19 17 17 17 16 14 14 15 16 17 17 17 17 17 18 18 19 20 21 24 26 29 30 31 32 32 31 31 32 33 33 34 35 36 37 37 37 37 37 36 35 34 32 31 30 30 30 30 30 30 30 30 30 30 30 30 30 30 30 30 31 31 31 32 33 34 35 35 36 37 37
24 24 24 24 24 24 23 22 20 19 18 18 17 17 16 16 16 15 14 13 13 13 14 13 13 13 13 13 14 14 15 16 18 20 23 26 28 29 31 31 30 30 31 32 33 33 34 34 35 35 35 35 35 35 35 34 33 31 30 29 28 28 28 27 27 27 26 27 27 27 27 26 26 27 27 27 28 29 30 31 32 33 33 34 35
21 22 22 22 22 22 21 20 19 18 17 17 18 18 18 18 19 19 19 18 16 14 11 10 9 9 10 10 11 11 12 13 14 17 21 24 25 27 29 30 30 29 30 31 31 32 32 32 33 33 33 33 33 33 33 33 33 32 31 30 28 27 26 26 25 25 25 24 24 24 24 24 24 24 24 24 25 26 27 28 29 29 30 30 32
19 19 20 20 20 20 20 19 18 18 18 18 18 19 19 20 21 22 23 23 22 20 16 13 10 9 8 8 8 8 8 10 12 15 19 22 23 25 27 28 29 29 29 30 30 31 31 31 31 31 31 31 31 31 30 30 31 31 31 31 29 27 26 24 24 24 24 24 24 23 23 23 23 23 23 23 23 24 24 24 25 26 27 27 29
17 17 18 17 17 17 17 17 17 17 17 17 18 19 19 20 21 21 21 23 24 24 23 21 18 16 13 11 10 8 8 9 11 14 18 20 22 23 25 26 27 28 28 28 29 29 29 30 30 30 30 30 29 29 28 28 28 28 28 29 29 28 27 25 23 22 22 22 23 23 22 21 21 22 22 22 22 22 22 22 23 24 25 27 29
16 16 15 15 15 15 15 14 15 15 15 16 17 18 18 19 19 19 20 20 22 23 24 25 24 23 21 20 18 16 14 12 12 14 17 19 21 22 24 25 25 26 27 27 27 28 28 28 29 29 29 28 28 27 27 26 26 26 26 26 26 27 27 26 24 22 21 21 22 22 22 21 20 20 21 22 22 23 23 23 24 25 26 27 28
15 14 13 13 13 13 12 12 12 13 14 15 15 16 16 17 17 18 18 19 20 22 23 24 25 25 24 22 21 21 21 20 18 18 18 19 20 21 22 23 24 24 25 25 25 25 26 27 27 27 27 27 26 26 25 24 24 24 24 24 23 24 25 25 24 22 20 20 20 21 21 21 19 19 20 21 23 24 25 26 27 27 28 28 29
14 13 12 12 11 11 10 10 10 11 12 13 14 14 15 15 16 16 17 18 19 19 20 21 22 23 24 23 21 21 21 22 21 21 20 20 20 20 21 21 21 22 23 23 23 23 24 24 24 24 25 25 25 25 24 23 22 22 22 22 22 22 22 23 23 22 20 18 18 18 19 20 19 18 19 21 22 24 26 27 28 29 29 29 29
13 12 12 11 10 9 9 9 9 10 11 12 13 13 14 14 14 15 16 17 17 17 18 19 19 20 22 22 22 21 21 21 20 20 20 19 19 19 19 19 19 20 20 20 20 21 21 21 21 21 22 22 23 24 24 23 23 22 21 21 21 21 21 21 21 21 20 18 17 17 17 18 18 18 19 21 23 24 25 27 28 29 29 29 29
13 11 11 10 10 8 7 7 8 9 10 11 12 12 13 13 13 14 15 16 16 16 17 17 17 17 19 20 20 21 21 20 19 19 19 18 18 17 17 17 17 17 17 17 18 18 19 19 19 20 20 20 21 22 22 23 23 23 22 21 20 20 20 20 20 20 20 19 18 17 16 17 18 19 20 22 24 25 26 26 28 28 29 29 29
13 11 9 9 8 8 7 6 7 8 9 10 10 11 11 11 12 13 13 15 15 16 16 16 16 16 17 18 19 19 19 19 19 18 18 18 17 17 17 16 16 16 16 16 17 17 18 18 19 19 20 20 21 21 22 23 23 24 23 22 22 21 21 20 20 21 21 21 19 18 17 17 18 19 21 23 26 28 28 28 28 29 30 30 30
13 11 9 8 7 7 6 6 6 7 8 8 9 9 10 10 10 11 12 14 15 16 16 16 16 16 17 17 18 18 18 18 18 17 17 17 17 17 17 17 17 17 17 17 17 18 18 19 19 20 21 21 22 23 24 25 25 25 25 25 25 23 22 22 21 21 22 22 21 20 20 19 19 21 22 25 28 30 30 30 30 31 32 32 32
14 13 11 9 7 6 6 5 5 6 6 7 7 8 8 9 9 10 11 12 14 15 15 16 17 17 17 17 18 18 18 18 18 17 17 17 17 17 17 17 17 18 18 18 18 18 19 20 21 22 22 23 24 25 25 26 26 27 27 27 27 27 26 25 23 23 23 23 23 22 22 22 22 22 24 26 29 31 32 33 33 34 35 35 35
14 13 12 10 9 7 6 6 6 5 4 5 6 6 7 7 8 8 9 10 12 13 14 15 16 16 17 17 17 18 18 19 19 19 18 18 18 18 19 19 19 19 19 19 19 19 20 21 22 22 23 23 24 25 26 27 28 28 28 29 29 29 29 28 27 25 24 24 24 24 24 24 24 24 25 27 29 32 34 34 35 36 37 38 38
13 13 12 11 10 9 7 6 6 5 2 4 5 5 5 6 6 7 8 10 11 12 13 14 15 16 17 17 17 18 18 18 19 19 20 20 20 20 20 21 21 21 21 22 22 22 22 22 22 23 23 24 24 25 27 28 29 30 30 30 31 31 31 31 30 28 26 25 24 24 25 26 27 27 27 28 30 33 35 36 37 38 39 39 40
13 12 12 11 10 9 8 7 7 6 3 1 3 4 4 5 5 6 8 9 11 12 14 15 16 17 17 18 18 18 18 18 19 19 20 20 21 21 21 21 22 22 23 24 24 24 24 24 25 26 26 27 27 28 28 29 30 31 32 32 33 33 34 33 33 31 28 26 25 24 25 26 28 29 29 30 31 33 35 37 38 39 40 40 41
14 13 12 11 10 9 8 8 8 8 5 3 2 2 3 4 5 6 8 9 11 13 14 15 16 17 18 19 19 20 20 20 20 20 20 21 21 22 23 23 23 24 24 25 25 26 26 27 28 28 29 29 30 30 31 32 32 33 34 35 35 35 35 35 35 34 31 28 26 25 25 26 28 29 30 32 33 34 36 38 39 39 40 42 42
15 14 12 11 10 9 9 9 9 8 7 5 4 3 3 4 5 6 8 9 10 12 14 15 17 18 19 19 20 21 22 22 22 23 23 23 24 24 25 25 26 27 27 28 28 28 29 29 30 30 31 32 33 34 34 35 36 36 36 37 37 37 37 37 36 36 34 31 28 26 25 25 27 29 31 33 34 35 36 38 39 40 41 42 43
16 14 13 12 11 10 10 10 9 8 8 7 6 5 4 5 6 6 8 9 10 11 13 15 16 18 19 20 21 22 23 24 24 25 25 26 26 26 27 28 29 29 30 31 31 32 32 33 34 34 35 36 37 37 37 38 38 39 39 39 39 39 39 38 37 36 35 32 29 26 25 25 26 28 30 33 34 35 37 38 39 40 42 43 44
16 15 13 13 12 11 11 10 10 9 9 8 8 7 7 7 7 7 8 9 10 11 13 15 17 18 20 21 22 23 24 25 26 27 27 28 28 29 29 30 31 32 33 33 33 34 35 36 37 38 39 39 40 40 40 41 41 41 41 41 41 41 40 39 37 36 35 33 30 26 25 25 26 27 29 32 35 36 37 38 39 40 41 44 46
17 16 14 13 13 13 12 12 11 10 10 10 10 10 10 10 9 9 9 9 11 12 14 16 18 20 22 23 24 24 25 26 27 28 29 30 30 31 32 33 34 35 35 35 36 37 38 39 40 41 41 42 43 43 44 43 43 43 43 43 42 42 40 39 37 36 35 33 30 26 25 25 25 27 29 32 34 36 38 38 39 40 42 44 47
17 16 15 15 14 14 13 13 12 12 11 11 11 11 11 11 11 10 10 11 12 14 15 17 19 22 24 25 26 26 26 27 27 28 29 30 32 33 34 35 36 37 38 39 40 41 42 42 43 44 45 45 46 46 46 45 45 44 43 43 42 41 40 38 36 35 33 32 29 26 24 24 25 26 28 31 34 36 37 39 39 40 42 44 47
18 17 17 16 15 14 14 14 14 13 13 13 13 12 12 12 12 12 12 13 13 15 16 18 21 23 25 27 28 28 28 28 28 29 30 31 33 34 36 37 38 40 41 43 44 45 46 47 48 48 48 48 48 47 47 46 45 44 43 41 41 40 39 37 35 33 32 30 27 25 24 23 24 25 27 30 32 35 37 39 40 41 42 44 47
19 18 17 17 16 15 15 15 15 15 15 14 14 13 13 12 13 13 14 14 15 16 18 20 23 25 27 28 29 29 29 29 30 30 31 33 35 36 38 39 41 43 44 46 47 48 49 49 49 50 50 49 49 48 46 45 43 42 41 40 39 39 37 36 33 31 30 27 24 23 23 23 23 25 26 29 31 34 37 39 40 41 43 44 47
19 19 18 17 16 16 15 16 16 16 16 16 15 14 14 14 13 14 15 16 16 18 20 22 24 26 28 30 30 31 31 31 31 33 34 35 37 38 40 42 44 46 47 48 49 49 50 50 49 48 48 47 47 46 44 42 41 39 38 38 37 37 36 34 32 29 27 24 22 22 22 22 23 24 26 28 30 33 36 39 39 41 42 44 47
20 19 18 17 17 17 16 16 16 17 17 16 16 16 15 15 15 15 16 17 18 20 22 24 26 28 31 32 32 32 32 33 34 35 37 38 39 41 43 45 47 48 49 50 50 49 48 47 47 46 45 45 44 43 42 41 39 38 37 36 36 35 34 31 29 26 23 21 21 21 21 21 23 24 26 28 30 33 36 38 39 40 42 44 47
21 20 19 18 18 18 18 17 17 17 17 17 17 17 17 17 17 17 17 18 20 22 24 26 28 31 33 34 34 34 34 35 36 38 39 41 43 45 47 48 49 49 49 49 48 47 46 44 43 43 43 43 43 42 40 39 38 37 36 35 34 33 31 28 25 22 19 19 20 21 22 22 23 25 26 28 30 33 36 38 40 41 42 45 47
23 22 21 20 20 19 19 18 18 18 18 18 18 18 19 19 19 19 19 20 22 24 26 28 30 32 34 35 36 36 37 37 39 40 42 44 46 48 49 49 49 48 47 45 44 44 43 42 41 40 40 40 41 41 39 38 36 35 35 34 31 30 28 24 20 17 17 19 21 23 23 23 24 25 26 28 30 33 35 38 40 41 42 44 47
24 23 22 21 20 19 19 19 19 19 19 19 20 20 21 21 21 22 22 23 24 26 28 30 32 34 36 37 38 38 39 40 41 43 45 47 49 50 50 48 46 44 42 41 40 40 40 40 40 40 40 39 39 39 39 37 36 34 33 31 29 26 23 19 16 16 17 20 23 25 25 24 25 26 27 28 30 33 35 38 41 42 42 44 46
25 23 21 20 19 18 18 19 19 20 21 22 22 23 24 24 24 24 24 25 27 29 31 32 34 36 37 38 39 39 40 41 44 46 48 49 49 48 47 44 42 40 38 38 37 36 37 38 39 41 41 40 39 39 38 37 35 33 30 27 24 22 19 16 16 17 19 21 24 26 26 27 27 28 29 30 31 33 35 38 41 43 43 44 46
26 23 21 19 18 18 19 20 21 21 23 24 25 26 27 27 27 27 26 28 30 32 33 35 36 38 39 39 40 40 41 43 46 48 49 49 47 44 41 39 38 37 37 36 35 35 36 37 38 40 41 41 39 38 37 35 35 33 28 22 20 19 18 17 18 19 20 22 24 26 28 29 31 32 32 32 32 33 35 38 41 43 44 45 46
26 23 22 20 20 20 21 22 23 23 24 26 27 28 29 29 29 29 29 31 33 34 36 37 39 39 40 40 41 42 44 46 47 48 47 45 42 39 37 36 36 36 36 37 36 36 36 37 37 38 39 40 39 37 35 34 33 31 25 19 17 17 18 18 19 21 23 25 27 29 30 32 34 35 36 35 34 35 36 37 41 44 45 45 45
27 25 24 24 24 24 24 25 25 26 26 27 28 29 30 30 31 32 33 34 34 35 37 39 40 41 41 42 43 45 47 48 48 45 41 38 35 34 34 34 35 36 37 37 37 37 37 38 38 38 38 38 37 35 33 32 32 28 20 16 17 18 19 20 22 24 26 29 31 33 34 36 37 38 40 39 38 37 37 38 40 43 45 45 44
28 27 27 27 27 27 27 27 28 28 28 28 28 29 30 31 32 34 35 35 36 37 38 39 40 42 43 44 45 47 48 47 44 40 36 33 31 31 32 33 35 36 37 38 37 35 36 38 39 38 38 37 35 33 31 31 29 23 16 15 18 20 22 24 25 26 28 31 34 36 37 38 40 41 42 42 41 40 39 39 39 41 44 46 45
30 29 28 28 29 30 29 29 30 30 30 29 29 29 30 31 33 34 35 36 37 38 39 39 41 42 44 46 47 48 47 44 39 35 32 30 30 30 31 33 34 36 37 37 36 33 34 36 37 38 37 36 34 31 29 28 26 19 15 16 19 21 25 27 29 30 31 33 37 39 39 39 39 40 42 43 42 41 41 41 40 40 43 46 47
32 31 30 30 31 31 31 31 31 31 30 29 29 30 31 32 33 33 35 36 38 39 39 40 42 44 46 47 48 46 43 38 34 31 30 29 29 29 30 32 33 35 37 37 36 33 33 35 36 36 36 36 35 31 27 25 22 17 15 17 20 23 26 29 32 33 33 36 39 40 39 39 39 39 40 41 42 42 42 41 41 40 43 47 48
35 34 33 33 33 33 33 32 32 31 30 30 30 31 32 33 34 34 35 36 38 39 40 42 44 46 47 47 46 42 38 34 31 30 30 30 30 31 31 32 33 35 36 37 35 33 33 36 37 36 35 35 35 31 26 22 19 17 18 20 22 24 26 30 33 33 32 33 36 36 36 36 37 38 38 40 41 42 43 43 42 41 43 47 49
38 37 35 35 35 35 35 34 33 32 31 30 31 31 32 34 35 36 36 37 38 39 41 43 45 47 47 45 41 37 33 31 30 31 32 32 33 33 33 34 35 35 37 36 34 33 34 36 36 35 34 34 34 31 26 21 19 19 21 24 26 29 30 32 33 30 29 28 30 32 32 32 35 37 38 40 41 41 44 46 44 42 43 47 50
40 39 38 37 37 37 36 35 34 32 31 31 31 32 33 35 36 37 38 38 40 41 42 44 46 45 43 40 36 33 31 30 31 33 34 34 36 36 36 37 37 37 39 36 33 35 36 36 35 34 32 32 32 31 27 24 22 22 23 27 31 32 32 32 30 28 27 25 27 31 32 32 34 37 38 41 42 43 45 46 46 43 43 46 51
41 40 40 40 39 38 37 36 34 33 32 32 33 33 34 35 37 38 39 40 41 42 44 45 44 42 38 35 33 31 30 30 32 35 36 36 38 38 38 39 39 41 42 37 35 37 38 36 33 29 28 29 30 30 29 26 26 24 24 29 32 30 27 27 26 26 27 27 29 32 33 34 35 37 39 42 43 44 46 47 47 45 43 45 49
43 42 42 42 41 39 38 36 35 34 33 34 34 34 34 35 37 39 41 42 44 45 45 43 40 37 34 32 31 31 31 32 34 36 37 38 39 39 40 40 40 43 44 39 38 39 38 34 28 26 30 33 32 31 30 29 29 27 26 30 31 25 22 22 23 24 27 29 32 33 34 37 38 39 42 43 45 47 49 49 50 48 45 45 48
44 44 43 42 41 41 40 37 36 35 35 35 35 35 35 36 38 39 41 43 45 44 42 38 36 34 32 30 30 31 32 33 34 35 36 37 38 38 39 41 42 45 46 42 41 42 40 35 31 33 38 40 37 37 36 34 34 33 30 31 30 25 23 23 24 26 30 32 33 34 35 38 40 42 44 46 49 51 52 52 52 51 48 48 48
46 45 44 42 41 42 41 39 37 36 36 36 36 36 37 38 39 40 42 44 43 41 37 34 32 32 30 30 30 31 33 33 33 34 35 36 38 38 38 39 43 47 48 45 46 47 44 42 43 45 47 47 46 46 44 40 39 37 32 30 28 27 26 26 26 28 32 34 34 34 35 39 42 43 46 49 52 54 54 53 53 52 51 51 50
47 46 44 43 42 42 41 40 38 37 37 37 38 38 39 39 40 42 43 43 40 37 34 32 31 30 29 29 30 30 32 33 33 34 35 36 38 39 39 39 41 46 48 48 50 52 51 51 53 52 49 48 45 43 41 38 38 36 31 26 26 27 27 27 28 30 33 35 35 35 37 43 48 48 47 49 54 57 55 54 54 53 52 51 50
Wind_Direction
77 81 83 80 77 76 77 79 80 81 82 83 86 89 91 91 91 90 89 88 87 86 84 82 80 77 76 75 74 73 72 71 70 70 69 69 69 69 69 69 69 69 69 69 67 66 65 63 62 60 57 54 50 46 41 36 29 21 20 26 39 55 49 44 46 45 40 29 14 357 344 332 323 320 319 320 322 322 322 324 327 329 332 333 331
77 79 81 80 79 78 77 79 82 85 88 90 92 94 94 93 92 91 89 88 86 84 82 79 75 73 72 71 70 70 70 68 66 65 64 64 65 65 66 66 66 66 66 65 65 65 64 64 64 64 64 62 61 59 57 55 53 50 47 46 46 46 42 40 39 37 34 28 21 14 5 355 346 340 334 331 329 328 328 327 327 329 329 330 329
76 79 80 80 81 80 79 82 87 91 93 95 97 96 95 94 92 91 89 87 85 83 80 75 70 67 67 65 64 63 63 61 59 58 58 59 59 60 62 62 62 62 62 62 61 60 60 60 60 62 62 62 62 62 62 62 61 61 60 60 59 58 56 53 50 47 44 41 38 36 32 27 21 12 5 358 351 345 339 336 332 329 327 326 325
77 80 83 82 83 82 82 85 91 96 98 99 99 98 95 93 91 90 89 87 84 81 78 73 66 65 65 61 59 57 54 52 50 50 50 52 55 57 60 60 60 59 60 60 60 60 59 58 57 56 56 56 56 56 58 59 59 60 61 62 64 65 65 66 65 64 64 62 62 61 59 58 55 53 50 47 43 40 36 33 30 26 20 13 6
81 82 85 86 85 85 85 89 95 100 101 101 100 97 94 90 88 88 88 86 82 79 78 73 67 67 66 60 57 53 48 46 44 44 44 45 49 54 57 58 59 58 58 57 58 59 59 59 58 57 56 54 54 54 54 55 57 58 59 61 63 65 67 68 69 70 70 70 70 70 70 70 69 69 68 67 65 64 62 60 58 56 54 51 48
85 86 88 88 88 87 88 92 97 101 102 102 99 95 90 86 83 83 84 82 78 74 74 73 71 71 68 61 57 53 47 44 41 39 38 40 44 48 50 53 55 56 56 56 55 55 56 57 58 58 57 56 55 55 55 55 57 59 61 63 65 66 68 69 70 71 72 72 72 72 71 71 70 69 68 66 65 63 61 59 57 55 53 51 49
90 89 89 90 91 91 91 92 95 99 102 100 95 90 85 79 76 76 77 76 72 69 69 71 72 72 71 66 61 56 47 41 38 35 33 35 38 41 43 45 49 51 51 52 52 53 52 53 53 53 54 54 54 55 54 53 53 55 57 60 62 64 66 68 69 70 70 71 70 70 69 68 66 65 63 62 60 59 57 55 53 52 49 47 45
94 92 92 92 94 95 96 95 95 99 100 96 89 84 77 71 67 67 67 63 61 63 64 67 68 70 70 68 63 56 46 39 35 33 30 30 32 35 37 39 43 46 46 46 48 50 51 50 50 49 49 48 49 50 51 51 51 51 51 52 54 56 58 61 63 65 65 65 65 65 64 62 61 59 58 57 56 54 53 52 50 48 46 44 42
99 97 96 95 95 98 100 100 100 100 97 92 86 81 75 70 66 63 59 53 51 53 55 58 61 64 64 64 62 55 44 37 34 31 26 26 27 29 32 35 39 42 43 44 46 48 48 47 46 46 45 44 43 44 44 45 46 47 48 48 48 48 49 50 52 54 55 56 56 56 55 53 52 52 51 50 50 49 48 48 47 44 42 40 37
103 101 98 98 97 98 100 100 101 99 96 92 86 80 74 69 66 62 58 54 51 50 46 43 44 47 50 52 56 53 40 31 29 26 21 21 23 25 30 33 36 39 41 43 44 45 44 43 42 41 40 39 39 39 39 39 39 40 42 43 44 44 44 43 43 44 44 45 46 47 46 45 44 43 44 44 44 44 43 42 41 39 37 35 32
108 105 102 101 100 99 98 98 97 95 93 88 83 77 70 65 61 59 55 53 52 52 50 43 34 26 22 24 31 34 26 18 16 15 14 16 18 22 28 31 34 37 39 41 41 41 40 39 37 36 35 34 33 33 33 34 34 34 34 36 37 39 39 38 37 37 37 37 38 39 40 42 42 41 41 41 41 40 38 36 33 31 29 27 25
116 111 109 106 102 100 97 95 93 89 86 82 77 72 67 62 58 56 53 50 50 50 51 49 47 42 36 31 27 21 11 4 4 6 10 15 18 22 27 29 32 35 36 38 38 37 36 34 32 31 30 29 28 28 28 28 28 29 29 29 29 30 32 32 31 31 30 31 31 32 33 36 41 42 41 38 35 32 30 27 23 21 19 19 18
124 120 116 111 105 101 97 93 88 83 79 74 70 67 63 59 55 52 50 48 47 47 47 46 47 47 47 45 44 44 40 31 21 17 17 19 22 26 30 31 32 34 34 34 34 32 31 30 28 26 25 25 25 25 24 24 23 23 23 23 23 23 24 24 25 24 24 24 25 26 27 29 34 39 40 35 30 25 21 18 16 14 12 12 11
130 127 123 116 109 103 97 90 83 78 73 69 65 61 58 55 51 48 46 44 42 43 42 42 42 45 47 47 47 48 48 46 42 37 33 30 29 31 33 34 33 33 32 31 29 28 28 27 25 23 22 22 22 22 20 19 18 17 16 16 16 17 17 17 17 17 17 18 19 19 20 22 26 30 32 31 27 21 16 12 10 8 6 5 3
135 132 127 120 113 108 101 91 80 73 69 65 60 57 54 51 47 45 44 43 41 40 39 38 38 41 44 46 46 46 47 47 47 46 44 40 38 37 37 36 33 31 29 27 26 26 25 25 23 21 19 19 19 18 17 15 13 11 9 8 8 8 9 9 10 10 10 11 12 13 13 15 17 19 21 22 22 20 14 9 5 3 1 359 358
142 137 129 125 120 114 106 95 80 70 65 62 57 53 50 47 45 44 43 44 43 41 39 36 34 36 40 42 43 44 44 44 45 45 46 45 42 40 37 35 32 29 27 26 25 24 24 24 23 20 18 16 15 15 14 13 10 7 3 0 359 360 0 1 1 2 3 3 4 5 6 7 8 8 8 11 13 14 13 9 4 0 358 356 354
149 144 136 129 127 122 112 98 82 72 67 60 53 49 45 44 43 42 42 43 43 41 40 38 34 33 35 37 37 39 40 40 39 39 40 42 43 41 39 36 34 32 30 28 26 24 23 22 21 18 17 15 13 11 11 11 10 6 1 355 351 349 349 350 352 353 356 358 357 356 356 357 358 359 0 2 3 5 8 8 5 2 359 356 354
156 153 147 139 135 132 122 105 86 77 69 56 47 43 41 42 42 39 38 40 41 41 41 39 36 34 33 33 32 32 34 34 34 33 31 32 34 35 35 33 32 33 31 27 25 23 20 19 18 16 15 13 11 10 9 9 8 5 1 356 349 343 339 339 342 344 347 351 352 349 348 347 348 351 354 356 357 357 359 2 4 3 360 357 355
163 162 159 154 146 140 130 118 101 89 73 52 41 36 37 41 42 38 36 36 37 37 38 38 38 36 33 31 29 28 26 27 28 28 26 24 24 25 24 23 20 21 22 21 18 17 14 13 11 10 10 8 7 6 6 5 4 3 360 356 351 345 338 333 333 335 338 342 346 346 344 342 342 344 347 351 353 354 354 356 360 1 360 357 355
170 169 170 169 161 151 147 141 126 105 76 49 37 31 32 39 40 37 32 32 32 30 30 33 35 34 33 31 28 25 22 21 21 21 21 18 15 14 14 13 10 8 8 9 7 6 4 3 2 2 1 360 359 359 358 358 358 357 356 354 351 347 342 336 331 329 329 333 338 343 342 340 339 339 341 345 349 351 351 351 354 357 357 356 354
177 177 179 179 176 172 172 167 148 121 74 38 29 25 26 33 35 32 27 26 26 24 21 22 24 25 27 27 24 21 19 16 15 15 15 13 10 7 5 4 2 359 358 356 356 355 354 353 353 353 352 351 351 351 350 349 349 350 350 349 347 346 343 340 334 327 324 325 329 336 340 340 339 338 338 340 344 347 349 349 350 352 354 354 352
183 184 185 186 186 186 186 182 171 154 96 26 19 16 15 21 26 24 19 16 15 14 13 11 11 12 13 15 14 14 13 11 9 8 8 7 6 4 1 359 357 354 352 349 348 347 346 346 345 344 344 344 344 344 343 343 342 342 342 342 342 341 340 338 335 330 324 322 322 327 334 338 340 339 338 339 340 343 346 346 346 347 349 351 351
188 189 191 193 194 195 194 191 189 191 199 341 3 360 356 1 9 11 9 8 6 3 3 2 1 2 2 3 3 2 3 2 1 1 0 360 359 358 357 355 354 351 349 347 346 344 342 341 340 340 340 340 339 338 337 337 337 336 336 336 336 336 336 335 333 331 326 322 320 322 327 333 338 340 339 338 339 341 343 344 344 345 346 347 349
195 196 199 202 203 206 205 202 204 212 225 254 308 322 327 334 343 353 358 359 358 356 355 354 355 355 355 355 355 354 354 353 352 352 351 351 350 350 350 350 349 347 346 344 342 340 340 339 338 338 337 336 336 335 334 334 333 332 331 331 331 331 330 330 330 329 327 323 320 320 322 327 333 338 340 340 339 340 341 341 342 342 343 345 347
202 203 205 208 211 214 217 217 218 223 236 253 267 282 299 317 331 342 348 351 352 350 349 350 350 350 351 351 350 349 349 347 346 346 345 345 344 344 344 344 344 344 343 342 340 339 338 337 336 336 335 334 333 332 331 330 329 328 327 327 326 325 325 325 326 327 326 323 320 318 319 322 326 333 338 341 341 340 340 339 340 341 341 343 345
208 208 209 211 215 218 222 225 228 233 243 256 267 280 299 317 331 339 344 346 347 346 346 345 345 345 345 346 346 345 345 343 342 342 341 341 341 341 340 340 340 340 340 340 339 338 336 335 334 333 332 331 329 328 327 326 325 325 324 323 322 321 320 321 322 323 323 321 318 316 317 318 321 326 333 339 341 340 338 337 338 339 340 341 343
211 211 211 214 219 222 226 229 233 240 251 263 275 289 306 319 328 334 337 338 339 341 341 340 340 340 340 341 341 341 340 340 339 339 338 338 339 339 338 337 337 337 337 337 336 335 334 333 331 329 328 325 324 323 322 321 321 321 320 319 318 317 317 317 318 319 320 319 316 314 314 314 316 321 326 333 338 338 336 336 337 338 339 340 342
212 212 213 217 224 229 232 235 239 247 258 270 282 293 304 313 319 324 329 331 334 336 337 337 337 337 337 337 337 338 338 337 337 337 336 336 336 336 335 335 334 334 334 334 333 332 330 328 326 325 323 321 320 319 319 319 319 318 317 317 316 315 315 316 316 317 316 316 314 312 312 312 314 319 323 328 333 335 334 335 336 337 338 339 341
212 214 216 221 228 234 240 243 248 254 262 271 282 291 299 306 311 315 321 325 328 331 334 336 338 337 337 337 336 336 336 336 336 335 335 335 334 333 333 333 333 332 332 331 330 328 327 325 323 321 319 319 318 318 318 318 318 317 317 316 315 314 314 315 316 315 314 313 311 309 310 312 315 319 321 325 329 332 333 334 335 336 337 339 340
214 217 222 226 232 239 245 251 255 260 265 271 279 286 292 299 305 309 314 319 323 328 332 335 337 337 337 336 335 335 335 334 334 334 333 332 331 331 331 331 331 330 329 328 326 325 324 323 322 320 319 319 318 318 318 319 319 319 318 317 315 314 315 316 316 314 313 311 309 308 310 312 316 319 320 322 326 329 332 334 334 335 336 338 339
218 223 227 232 238 244 250 256 261 264 266 271 276 281 286 292 299 304 308 313 319 324 328 332 333 335 335 334 333 332 333 333 332 332 331 330 329 329 329 329 328 327 326 325 324 323 323 322 321 321 320 320 320 320 320 321 321 320 319 317 316 316 316 317 316 314 312 310 308 309 312 313 315 317 319 321 325 328 332 333 333 334 335 337 339
223 228 232 238 244 249 255 260 265 267 268 271 274 277 280 285 291 298 303 308 315 320 325 328 330 332 333 332 331 331 331 331 330 329 329 328 328 328 327 326 325 324 324 323 323 322 322 322 322 322 322 322 322 322 322 323 322 321 319 317 317 317 318 318 317 315 313 310 309 310 312 312 313 316 319 323 326 328 330 331 332 334 335 337 339
226 231 236 242 248 254 260 265 269 271 271 273 275 275 277 281 285 291 298 305 312 318 322 325 327 330 331 330 330 329 329 329 328 328 327 327 327 326 325 325 324 323 323 323 323 323 324 324 325 325 325 325 324 324 324 323 323 321 319 318 318 318 319 320 319 317 313 309 308 309 309 309 312 316 320 324 327 329 329 330 333 334 335 337 339
231 235 239 245 251 257 262 268 273 274 274 275 276 277 278 281 284 290 296 303 311 316 319 322 325 328 328 328 328 327 327 327 326 326 326 326 325 325 324 324 323 323 324 324 325 325 326 327 328 328 328 327 326 325 324 323 322 321 319 318 318 319 320 322 321 317 313 309 307 308 309 309 312 317 321 324 326 327 328 330 332 333 335 337 339
238 241 244 247 251 256 262 269 274 275 275 275 276 279 280 281 285 290 295 301 308 313 316 319 322 324 325 326 325 325 325 325 325 325 325 324 324 324 324 323 324 324 325 326 327 328 329 330 331 330 330 329 328 326 324 323 322 320 318 318 320 321 323 325 323 318 313 311 311 310 310 309 312 316 319 322 324 325 328 330 331 332 334 336 338
242 245 247 250 253 257 262 268 273 274 274 274 276 278 280 282 286 290 295 302 307 311 314 316 319 321 322 323 323 324 324 324 324 324 324 324 324 324 324 324 325 326 327 328 329 331 332 332 332 331 330 331 330 327 324 322 321 321 320 322 325 326 329 330 326 320 317 315 314 313 311 309 309 313 315 318 322 326 329 330 330 331 334 336 338
243 245 248 253 259 264 268 270 272 273 273 273 274 277 280 283 286 291 297 303 307 309 311 313 316 318 319 320 321 321 322 322 323 323 324 324 324 324 324 325 326 327 329 330 332 334 334 334 332 331 332 333 332 329 325 323 322 323 325 329 331 332 336 336 329 324 322 319 317 315 311 307 306 309 314 319 324 327 329 329 328 330 334 337 338
243 246 250 256 261 266 270 271 272 271 271 271 273 275 278 282 287 293 298 302 305 307 309 311 313 315 317 317 318 319 320 321 323 324 324 324 324 325 325 327 328 329 330 332 333 334 334 334 334 334 334 335 334 331 327 324 323 325 329 336 340 340 341 339 334 329 325 321 318 313 310 308 309 314 317 321 324 326 327 328 327 329 333 336 337
244 248 252 255 260 264 268 271 272 272 272 272 273 275 279 284 289 294 296 299 303 305 307 309 312 314 314 315 316 318 320 322 323 324 324 324 324 325 327 328 330 330 331 332 333 334 334 334 335 337 337 338 336 333 330 325 324 326 331 340 346 345 341 338 334 329 325 321 319 317 316 316 317 318 319 321 324 327 329 329 327 328 332 335 336
246 250 253 256 261 265 269 272 274 275 275 275 277 279 282 286 290 292 294 298 301 303 306 308 310 312 313 314 316 318 321 322 323 323 323 323 324 326 327 329 329 330 330 330 331 333 334 334 335 338 339 339 338 336 332 327 326 330 333 338 342 342 340 339 335 329 326 325 326 325 324 323 322 321 321 323 325 326 328 328 327 326 329 332 335
248 252 255 259 264 267 271 274 277 279 279 280 282 284 285 287 289 291 294 298 300 302 305 308 309 310 312 313 316 319 321 322 322 322 322 323 324 326 327 327 327 327 327 327 329 332 333 332 333 337 339 340 338 337 334 330 330 333 332 327 331 334 335 336 335 332 329 329 332 333 330 326 324 324 323 324 325 324 324 325 326 327 327 330 335
249 254 257 261 265 269 273 277 280 281 282 283 284 286 288 288 290 292 295 297 300 302 305 307 308 309 311 314 317 319 320 320 320 320 321 323 325 326 326 326 326 325 324 324 327 331 331 329 331 335 338 339 338 337 335 332 332 333 325 318 320 324 327 329 331 332 330 329 331 334 333 329 326 325 325 326 326 325 323 322 325 328 329 331 336
250 254 258 262 266 270 275 278 281 282 282 283 285 287 290 291 292 293 295 298 300 302 304 306 307 309 311 314 316 318 318 318 318 319 321 323 324 325 325 325 324 323 323 323 327 331 330 328 329 332 335 337 337 337 336 334 332 327 319 314 313 315 318 322 326 328 328 327 329 332 334 331 327 327 328 329 329 328 325 322 324 328 331 333 336
251 255 259 264 268 272 276 278 280 281 281 282 285 288 291 291 292 294 295 297 300 301 304 306 308 310 312 314 315 316 316 316 317 319 321 323 324 325 326 326 326 324 323 324 328 332 331 327 327 329 333 335 335 337 336 331 326 322 318 315 313 313 316 319 322 326 329 329 330 332 335 332 328 329 330 330 331 331 328 325 325 327 331 334 335
251 255 260 265 269 272 275 277 279 279 280 283 285 288 290 290 292 294 296 297 299 301 304 306 308 310 311 313 313 313 314 316 318 320 322 324 326 328 329 329 329 327 323 324 330 333 330 326 324 325 329 331 334 335 332 324 319 318 319 318 316 316 317 317 319 322 328 334 334 334 335 333 327 327 328 329 330 331 331 329 328 328 330 333 334
252 256 261 265 269 271 273 276 277 278 281 283 285 287 288 290 292 294 295 297 299 301 304 306 307 309 310 310 310 311 314 317 320 322 325 327 329 330 331 331 332 328 322 325 333 334 330 325 322 323 326 329 331 330 325 317 313 316 318 319 321 322 319 315 315 317 322 332 337 334 334 334 328 324 325 326 328 330 331 331 331 330 328 329 330
253 257 262 265 268 269 272 274 276 278 280 282 283 285 287 289 291 293 295 297 299 301 303 305 306 306 307 307 308 312 316 320 323 325 327 329 329 330 330 331 332 327 322 328 337 335 331 329 326 328 332 332 329 324 317 309 305 308 312 314 320 325 319 311 311 313 314 321 328 329 328 332 332 327 324 325 327 328 329 329 330 331 328 325 325
254 258 262 265 267 268 270 273 275 277 278 279 281 283 285 287 290 292 295 297 299 301 303 304 304 304 304 306 310 315 319 323 325 325 327 328 327 328 329 329 330 324 321 329 337 333 332 335 333 330 331 330 324 316 310 303 297 297 298 304 313 321 315 305 305 309 308 310 319 324 323 326 331 330 327 327 328 328 328 327 327 328 327 323 321
256 259 262 264 266 268 270 271 273 275 277 279 280 282 284 286 289 292 294 296 298 300 302 302 301 301 304 308 313 318 321 323 324 324 325 325 324 326 329 329 328 322 321 329 334 329 330 333 327 321 322 323 319 311 305 300 295 291 289 295 305 312 308 303 303 305 303 303 314 323 320 319 326 329 327 329 330 329 327 325 325 325 325 322 320
258 260 262 262 264 267 269 271 272 273 275 277 279 281 283 286 289 291 293 294 295 297 298 297 296 299 305 311 315 318 320 321 322 322 322 323 323 326 328 328 326 320 320 328 330 324 324 326 320 316 316 315 311 306 302 297 291 289 289 293 301 307 305 302 300 301 300 302 313 325 322 320 324 326 324 325 328 327 325 323 323 322 321 321 321
258 260 261 262 263 266 268 271 272 273 274 276 278 280 283 286 288 290 291 291 292 292 291 290 292 298 305 311 314 316 318 318 320 320 321 322 323 324 327 328 324 318 321 327 324 319 320 322 320 319 318 315 310 307 307 301 290 286 289 295 303 308 305 298 297 303 305 306 314 326 326 323 323 323 321 321 322 323 323 321 321 319 318 319 321
Height
10995 10994 10994 10993 10992 10991 10990 10989 10988 10987 10987 10985 10984 10984 10983 10982 10981 10981 10980 10979 10977 10976 10976 10974 10974 10973 10972 10971 10971 10970 10968 10967 10966 10965 10964 10963 10961 10961 10959 10958 10957 10955 10954 10953 10952 10950 10949 10947 10946 10944 10943 10942 10941 10939 10938 10937 10936 10936 10935 10934 10933 10933 10932 10932 10931 10930 10930 10929 10929 10928 10928 10927 10927 10926 10925 10924 10924 10923 10922 10922 10921 10921 10920 10919 10918
10997 10997 10996 10996 10995 10994 10993 10992 10992 10991 10990 10989 10988 10987 10986 10985 10985 10984 10983 10982 10981 10980 10980 10979 10979 10977 10975 10975 10975 10974 10973 10972 10970 10969 10968 10967 10966 10965 10964 10962 10961 10959 10958 10957 10955 10954 10952 10950 10949 10947 10946 10945 10943 10942 10940 10939 10938 10937 10936 10935 10935 10934 10933 10933 10932 10931 10931 10930 10930 10929 10928 10927 10927 10926 10925 10924 10924 10923 10922 10922 10921 10920 10920 10919 10918
11000 11000 10999 10999 10998 10997 10997 10996 10995 10994 10993 10992 10991 10991 10990 10989 10988 10987 10987 10986 10985 10984 10983 10983 10983 10980 10978 10979 10979 10978 10977 10976 10975 10973 10972 10971 10970 10970 10967 10966 10964 10963 10961 10960 10959 10957 10956 10954 10952 10951 10949 10948 10947 10945 10943 10942 10941 10939 10938 10937 10936 10935 10935 10934 10933 10932 10932 10931 10930 10929 10929 10928 10927 10926 10925 10924 10924 10923 10922 10921 10921 10920 10919 10918 10917
11002 11002 11002 11001 11001 11000 11000 10999 10999 10998 10997 10996 10995 10994 10994 10993 10992 10991 10990 10989 10988 10988 10987 10986 10985 10982 10981 10982 10981 10981 10980 10979 10978 10977 10976 10974 10974 10974 10971 10969 10968 10967 10965 10964 10963 10961 10960 10958 10956 10955 10953 10952 10950 10949 10947 10946 10944 10943 10941 10940 10939 10937 10936 10935 10935 10934 10933 10932 10931 10930 10929 10928 10927 10927 10926 10925 10924 10923 10923 10922 10921 10920 10918 10917 10916
11005 11005 11005 11004 11004 11003 11003 11002 11002 11001 11000 10999 10998 10998 10997 10996 10995 10994 10993 10992 10992 10991 10990 10989 10987 10984 10984 10984 10984 10984 10983 10982 10981 10979 10978 10977 10977 10976 10974 10972 10971 10970 10969 10968 10966 10965 10963 10962 10960 10959 10958 10956 10955 10954 10952 10951 10949 10947 10946 10944 10943 10941 10940 10939 10938 10937 10936 10935 10933 10932 10931 10930 10929 10929 10928 10927 10926 10925 10924 10923 10922 10920 10919 10918 10916
11007 11007 11007 11007 11006 11006 11005 11005 11005 11004 11003 11003 11002 11001 11001 11000 10999 10998 10996 10996 10996 10995 10994 10991 10989 10988 10988 10987 10987 10986 10985 10984 10983 10981 10980 10979 10979 10978 10976 10974 10974 10973 10973 10971 10970 10968 10967 10965 10964 10962 10961 10960 10959 10958 10957 10955 10954 10952 10950 10949 10947 10946 10944 10943 10942 10941 10939 10938 10937 10936 10935 10933 10932 10931 10930 10929 10928 10927 10926 10924 10923 10922 10920 10919 10918
11009 11009 11009 11009 11008 11008 11008 11008 11007 11007 11007 11006 11005 11005 11004 11003 11002 11001 11000 11000 10999 10998 10996 10994 10992 10991 10991 10990 10989 10988 10987 10986 10985 10983 10982 10982 10981 10979 10977 10976 10976 10975 10975 10974 10972 10971 10970 10968 10967 10965 10964 10963 10962 10960 10959 10958 10957 10955 10954 10953 10951 10950 10948 10947 10946 10945 10943 10942 10940 10939 10938 10936 10935 10933 10932 10931 10929 10928 10927 10925 10924 10922 10921 10920 10918
11011 11011 11011 11011 11010 11010 11010 11010 11010 11010 11009 11009 11008 11008 11007 11006 11005 11004 11004 11003 11002 11000 10998 10996 10995 10995 10994 10993 10992 10990 10989 10988 10987 10985 10984 10984 10982 10981 10979 10978 10978 10977 10976 10975 10974 10973 10972 10970 10969 10967 10966 10965 10964 10962 10961 10960 10959 10958 10956 10955 10954 10953 10951 10950 10949 10948 10946 10945 10943 10941 10940 10939 10937 10935 10934 10932 10931 10929 10928 10926 10924 10923 10921 10920 10918
11013 11013 11013 11013 11012 11012 11012 11012 11012 11012 11011 11011 11010 11010 11009 11009 11008 11007 11006 11005 11003 11001 11000 10999 10999 10998 10997 10995 10994 10992 10991 10990 10989 10988 10987 10986 10984 10983 10982 10981 10980 10979 10978 10977 10976 10974 10973 10972 10970 10969 10968 10967 10966 10964 10963 10962 10960 10959 10958 10957 10956 10955 10953 10952 10951 10950 10948 10947 10945 10943 10942 10940 10939 10937 10935 10933 10932 10930 10928 10926 10925 10923 10921 10920 10918
11015 11015 11014 11014 11014 11014 11014 11014 11014 11014 11013 11013 11012 11011 11011 11010 11009 11008 11007 11006 11005 11003 11003 11002 11001 11000 10999 10997 10996 10994 10993 10992 10991 10990 10988 10987 10986 10985 10984 10983 10982 10980 10979 10978 10977 10976 10974 10973 10971 10970 10969 10968 10967 10966 10964 10963 10962 10960 10959 10958 10957 10956 10955 10954 10952 10951 10949 10948 10946 10945 10943 10941 10940 10938 10936 10934 10933 10931 10929 10927 10925 10923 10921 10920 10918
11016 11016 11016 11016 11016 11016 11016 11016 11015 11015 11015 11014 11014 11013 11012 11011 11010 11009 11008 11008 11007 11006 11005 11004 11003 11002 11000 10999 10998 10996 10995 10994 10992 10991 10990 10989 10988 10987 10986 10985 10984 10982 10981 10980 10978 10977 10976 10974 10973 10971 10970 10969 10967 10966 10965 10964 10962 10961 10960 10959 10958 10957 10955 10954 10953 10952 10950 10949 10947 10945 10944 10942 10940 10939 10937 10935 10933 10931 10929 10927 10925 10923 10921 10919 10917
11017 11017 11017 11017 11017 11017 11017 11017 11017 11016 11016 11015 11015 11014 11013 11012 11011 11011 11010 11010 11009 11008 11007 11006 11005 11003 11001 11000 10999 10998 10996 10995 10994 10993 10992 10991 10990 10989 10988 10986 10985 10984 10983 10981 10980 10978 10977 10975 10974 10972 10971 10970 10968 10967 10966 10964 10963 10962 10961 10960 10959 10957 10956 10955 10954 10952 10951 10949 10948 10946 10944 10942 10941 10939 10937 10935 10933 10931 10929 10926 10924 10922 10919 10917 10914
11018 11018 11019 11019 11018 11018 11018 11018 11018 11017 11017 11016 11016 11015 11014 11014 11013 11013 11012 11012 11011 11010 11009 11008 11006 11005 11003 11001 11000 10999 10998 10996 10995 10995 10994 10993 10991 10990 10989 10988 10987 10986 10984 10983 10981 10980 10978 10977 10975 10974 10972 10971 10969 10968 10966 10965 10963 10962 10961 10960 10959 10958 10956 10955 10954 10952 10951 10950 10948 10946 10944 10943 10941 10939 10937 10935 10933 10930 10928 10925 10922 10920 10917 10915 10913
11019 11019 11020 11020 11020 11019 11019 11019 11019 11019 11018 11017 11017 11016 11016 11015 11015 11015 11014 11014 11012 11011 11010 11009 11008 11007 11005 11003 11002 11001 10999 10998 10997 10996 10996 10995 10993 10992 10991 10990 10989 10987 10986 10984 10983 10981 10980 10978 10976 10975 10973 10972 10970 10969 10967 10966 10964 10963 10961 10960 10959 10957 10956 10955 10954 10952 10951 10949 10948 10946 10944 10943 10941 10939 10937 10934 10932 10929 10927 10924 10922 10919 10916 10914 10912
11020 11020 11020 11020 11020 11020 11020 11020 11020 11019 11019 11018 11018 11017 11017 11016 11016 11016 11015 11015 11014 11013 11011 11010 11009 11008 11007 11005 11004 11003 11001 11000 10999 10998 10997 10996 10995 10994 10992 10991 10990 10988 10987 10985 10984 10982 10981 10979 10978 10976 10975 10973 10971 10970 10968 10967 10965 10964 10962 10961 10959 10958 10956 10955 10954 10952 10951 10949 10948 10946 10944 10943 10941 10939 10937 10934 10932 10929 10927 10924 10921 10918 10916 10913 10910
11020 11020 11021 11021 11021 11021 11021 11021 11020 11020 11020 11019 11019 11018 11017 11017 11017 11017 11016 11016 11015 11014 11013 11012 11011 11010 11008 11007 11006 11004 11003 11002 11001 11000 10999 10998 10996 10995 10994 10993 10991 10990 10988 10986 10985 10983 10982 10980 10979 10978 10976 10974 10972 10971 10969 10968 10966 10965 10963 10961 10960 10958 10957 10955 10954 10952 10950 10949 10947 10946 10944 10942 10940 10938 10936 10934 10932 10929 10926 10924 10921 10918 10915 10912 10909
11020 11020 11020 11021 11021 11021 11021 11021 11021 11021 11020 11020 11019 11019 11018 11018 11017 11017 11017 11016 11016 11015 11014 11013 11012 11011 11009 11008 11007 11006 11004 11003 11002 11001 11000 10999 10998 10996 10995 10994 10992 10991 10989 10987 10986 10984 10982 10981 10980 10978 10977 10975 10974 10972 10971 10969 10967 10965 10964 10962 10960 10958 10957 10955 10953 10952 10950 10948 10946 10945 10943 10941 10940 10938 10936 10934 10931 10929 10926 10923 10921 10918 10914 10911 10908
11019 11019 11020 11020 11021 11021 11021 11021 11021 11021 11021 11020 11020 11019 11019 11018 11018 11017 11017 11017 11016 11016 11015 11014 11013 11012 11010 11009 11008 11007 11006 11005 11004 11002 11001 10999 10998 10997 10996 10994 10993 10991 10990 10988 10987 10985 10983 10982 10981 10980 10978 10976 10975 10973 10971 10970 10968 10966 10964 10962 10960 10958 10957 10955 10953 10951 10949 10947 10945 10944 10942 10940 10939 10937 10935 10933 10931 10928 10926 10923 10920 10917 10914 10910 10906
11019 11019 11020 11020 11021 11021 11021 11021 11022 11021 11021 11021 11020 11020 11019 11019 11018 11018 11018 11017 11017 11016 11016 11015 11014 11013 11011 11010 11009 11008 11007 11006 11005 11004 11002 11001 10999 10998 10997 10995 10994 10992 10991 10989 10988 10986 10984 10983 10982 10980 10978 10977 10975 10973 10971 10970 10968 10966 10964 10962 10960 10958 10956 10954 10953 10951 10949 10946 10945 10943 10941 10939 10937 10935 10934 10932 10930 10927 10925 10922 10919 10916 10913 10909 10905
11018 11019 11019 11020 11020 11021 11021 11022 11022 11022 11022 11021 11021 11020 11020 11019 11019 11018 11018 11018 11017 11017 11016 11015 11014 11013 11012 11011 11010 11009 11007 11006 11006 11005 11004 11002 11000 10999 10998 10996 10995 10993 10992 10990 10989 10987 10985 10983 10982 10980 10978 10977 10975 10973 10971 10969 10968 10966 10964 10962 10959 10957 10955 10953 10951 10950 10948 10946 10944 10942 10940 10938 10936 10934 10932 10930 10928 10926 10923 10920 10918 10914 10911 10908 10904
11017 11018 11019 11020 11020 11021 11021 11022 11022 11022 11022 11021 11021 11020 11020 11020 11019 11019 11019 11018 11017 11017 11016 11015 11015 11014 11013 11012 11011 11010 11008 11007 11006 11005 11004 11002 11001 10999 10998 10996 10995 10994 10992 10991 10989 10988 10986 10984 10982 10980 10979 10977 10975 10973 10971 10969 10967 10965 10963 10961 10959 10957 10954 10952 10950 10948 10947 10945 10943 10941 10939 10937 10935 10933 10931 10929 10926 10924 10921 10919 10916 10913 10910 10906 10903
11017 11017 11018 11019 11020 11020 11021 11022 11022 11021 11021 11021 11021 11020 11020 11020 11019 11019 11019 11018 11017 11017 11016 11015 11015 11014 11013 11012 11011 11010 11009 11008 11006 11005 11004 11002 11001 10999 10998 10996 10995 10993 10992 10991 10989 10987 10986 10984 10982 10981 10979 10977 10975 10973 10971 10968 10966 10964 10962 10960 10958 10956 10953 10951 10949 10947 10945 10943 10942 10940 10938 10936 10933 10931 10929 10927 10925 10922 10920 10917 10914 10911 10908 10905 10902
11016 11017 11017 11018 11019 11020 11020 11021 11021 11021 11021 11021 11020 11020 11020 11020 11020 11019 11019 11018 11018 11017 11016 11015 11015 11014 11013 11012 11011 11010 11009 11008 11007 11005 11004 11003 11001 11000 10998 10997 10995 10994 10992 10990 10988 10987 10986 10984 10982 10980 10978 10976 10974 10972 10970 10967 10965 10963 10961 10959 10956 10954 10952 10949 10947 10945 10943 10942 10940 10938 10936 10934 10932 10930 10927 10925 10923 10920 10918 10915 10912 10909 10907 10904 10900
11016 11016 11017 11018 11018 11019 11020 11020 11020 11020 11020 11020 11020 11020 11020 11020 11020 11020 11019 11019 11018 11017 11016 11015 11014 11014 11013 11012 11011 11010 11008 11007 11006 11005 11004 11002 11001 11000 10998 10997 10996 10994 10992 10990 10988 10987 10985 10983 10981 10978 10976 10974 10972 10970 10968 10966 10964 10961 10959 10957 10954 10952 10950 10948 10945 10943 10941 10939 10938 10936 10934 10932 10930 10928 10925 10923 10921 10918 10916 10913 10911 10908 10905 10901 10898
11015 11016 11017 11017 11018 11018 11018 11019 11019 11019 11019 11019 11019 11020 11020 11020 11020 11020 11019 11019 11018 11017 11016 11015 11014 11013 11013 11012 11011 11009 11008 11007 11005 11004 11003 11002 11000 10999 10997 10996 10995 10993 10991 10989 10987 10985 10983 10981 10979 10977 10974 10972 10970 10968 10965 10963 10961 10959 10956 10954 10952 10950 10948 10945 10943 10941 10939 10937 10936 10934 10932 10931 10928 10926 10924 10921 10919 10917 10914 10912 10909 10906 10903 10899 10896
11015 11015 11016 11016 11017 11017 11017 11018 11018 11018 11018 11018 11019 11019 11020 11020 11020 11019 11019 11018 11018 11017 11016 11015 11014 11013 11012 11011 11010 11009 11008 11006 11005 11003 11002 11001 10999 10998 10996 10994 10993 10991 10989 10987 10985 10983 10981 10979 10977 10974 10972 10970 10968 10966 10963 10961 10959 10956 10953 10951 10948 10946 10944 10942 10940 10938 10936 10934 10933 10932 10930 10929 10926 10924 10922 10920 10917 10915 10912 10910 10907 10904 10900 10897 10893
11014 11014 11015 11015 11015 11016 11016 11016 11017 11017 11017 11018 11018 11018 11019 11019 11019 11019 11018 11018 11017 11017 11016 11015 11014 11013 11012 11011 11010 11008 11007 11006 11004 11002 11001 10999 10998 10996 10995 10993 10991 10989 10987 10985 10983 10981 10979 10976 10974 10972 10970 10968 10966 10963 10961 10958 10956 10953 10950 10948 10945 10943 10940 10938 10937 10935 10933 10931 10930 10929 10928 10926 10924 10922 10920 10917 10915 10913 10910 10907 10904 10901 10898 10894 10891
11012 11013 11014 11014 11014 11014 11015 11015 11016 11016 11017 11017 11017 11017 11018 11018 11018 11018 11017 11017 11017 11016 11016 11015 11014 11012 11011 11010 11009 11007 11006 11005 11003 11001 10999 10998 10996 10994 10993 10991 10989 10986 10984 10983 10981 10979 10977 10975 10973 10970 10968 10966 10963 10960 10958 10955 10952 10950 10947 10944 10941 10938 10936 10934 10933 10931 10930 10928 10927 10926 10925 10923 10921 10920 10918 10915 10913 10910 10908 10905 10902 10899 10896 10892 10888
11011 11012 11012 11013 11013 11013 11014 11014 11015 11016 11016 11016 11016 11016 11016 11016 11016 11016 11016 11016 11016 11015 11015 11014 11013 11012 11010 11009 11007 11006 11005 11003 11002 11000 10998 10996 10994 10992 10990 10988 10986 10984 10982 10980 10978 10976 10974 10972 10970 10967 10964 10962 10959 10956 10953 10951 10948 10945 10942 10939 10936 10933 10931 10930 10929 10928 10926 10925 10924 10923 10922 10920 10919 10917 10915 10913 10911 10908 10906 10903 10900 10897 10894 10890 10886
11010 11011 11011 11011 11012 11013 11013 11013 11014 11014 11015 11015 11015 11015 11015 11015 11015 11015 11015 11015 11015 11014 11014 11013 11012 11011 11009 11007 11006 11004 11003 11001 11000 10998 10997 10995 10993 10991 10988 10986 10984 10982 10979 10977 10975 10972 10970 10967 10964 10961 10958 10955 10953 10950 10948 10945 10943 10940 10937 10934 10931 10929 10927 10926 10926 10924 10923 10922 10921 10920 10919 10918 10916 10915 10913 10911 10908 10906 10903 10901 10898 10895 10891 10888 10884
11009 11009 11010 11010 11011 11012 11012 11012 11012 11013 11013 11013 11013 11014 11013 11013 11013 11013 11013 11013 11013 11013 11012 11012 11011 11009 11008 11006 11004 11003 11001 11000 10998 10996 10995 10993 10991 10989 10986 10984 10981 10979 10977 10974 10972 10968 10965 10963 10959 10956 10952 10949 10946 10944 10943 10940 10938 10935 10932 10930 10927 10925 10924 10923 10922 10921 10920 10919 10918 10918 10917 10915 10914 10912 10911 10908 10906 10904 10901 10899 10896 10893 10889 10886 10882
11007 11008 11008 11009 11010 11011 11011 11011 11011 11011 11011 11011 11012 11012 11012 11012 11012 11012 11012 11012 11012 11011 11011 11010 11009 11008 11006 11005 11003 11001 10999 10998 10996 10994 10993 10991 10989 10986 10984 10981 10979 10976 10973 10970 10968 10965 10961 10958 10954 10952 10948 10945 10942 10939 10938 10936 10934 10931 10928 10926 10924 10922 10921 10920 10919 10918 10917 10916 10915 10914 10914 10912 10911 10909 10908 10906 10904 10902 10899 10896 10894 10890 10887 10883 10880
11006 11006 11007 11008 11008 11009 11009 11010 11010 11010 11010 11010 11010 11010 11010 11010 11011 11011 11010 11010 11010 11009 11009 11008 11007 11006 11004 11003 11001 10999 10997 10996 10994 10992 10990 10988 10986 10984 10981 10978 10975 10972 10969 10966 10963 10960 10957 10954 10950 10947 10944 10942 10939 10936 10934 10931 10929 10927 10924 10922 10920 10919 10918 10917 10916 10915 10914 10913 10912 10911 10910 10909 10908 10907 10905 10904 10901 10899 10897 10894 10891 10888 10885 10881 10877
11004 11005 11006 11006 11007 11007 11008 11008 11008 11008 11008 11008 11008 11008 11008 11008 11008 11009 11009 11008 11008 11007 11006 11006 11004 11003 11002 11000 10999 10997 10995 10994 10992 10989 10987 10985 10983 10980 10978 10975 10972 10969 10965 10962 10959 10955 10953 10950 10947 10945 10941 10938 10935 10932 10930 10928 10925 10923 10920 10919 10918 10917 10916 10914 10913 10912 10911 10910 10909 10908 10907 10907 10906 10904 10903 10901 10899 10897 10894 10891 10889 10886 10882 10878 10874
11002 11003 11004 11005 11005 11006 11006 11006 11006 11007 11007 11006 11006 11006 11006 11006 11006 11006 11007 11007 11006 11005 11004 11003 11002 11001 10999 10997 10996 10994 10993 10991 10989 10987 10985 10982 10979 10977 10974 10971 10968 10965 10962 10959 10956 10953 10949 10946 10944 10942 10939 10936 10932 10929 10927 10925 10923 10920 10918 10916 10915 10914 10913 10912 10911 10909 10909 10908 10906 10905 10905 10904 10903 10901 10900 10899 10897 10894 10891 10889 10886 10883 10879 10875 10871
11000 11001 11002 11003 11003 11004 11004 11004 11004 11004 11005 11005 11004 11004 11004 11004 11004 11004 11004 11004 11004 11003 11002 11001 11000 10998 10997 10995 10993 10992 10990 10988 10986 10984 10982 10979 10976 10973 10969 10967 10964 10962 10959 10957 10954 10951 10948 10944 10940 10937 10935 10933 10930 10927 10923 10921 10920 10918 10915 10914 10913 10911 10910 10909 10909 10908 10907 10905 10904 10903 10902 10901 10900 10898 10897 10896 10894 10892 10889 10886 10883 10880 10877 10873 10869
10998 10999 11000 11001 11001 11002 11002 11002 11003 11002 11002 11002 11002 11002 11001 11001 11002 11002 11002 11001 11001 11000 10999 10998 10997 10996 10994 10992 10991 10989 10988 10986 10983 10981 10978 10975 10973 10969 10966 10963 10961 10958 10957 10955 10953 10950 10947 10943 10939 10935 10932 10930 10927 10923 10920 10918 10916 10914 10912 10911 10910 10908 10908 10908 10907 10906 10905 10904 10902 10901 10899 10898 10896 10895 10894 10893 10892 10890 10886 10883 10880 10877 10873 10870 10866
10996 10997 10998 10998 10999 10999 10999 11000 11000 11000 11000 11000 11000 10999 10999 10999 10999 10999 10999 10999 10998 10997 10996 10995 10994 10993 10991 10990 10988 10986 10985 10983 10981 10978 10974 10971 10968 10965 10963 10960 10958 10955 10954 10952 10950 10948 10945 10942 10938 10934 10930 10927 10924 10920 10917 10915 10912 10911 10909 10909 10908 10907 10906 10906 10905 10905 10904 10903 10901 10900 10898 10896 10894 10893 10892 10891 10890 10887 10884 10881 10878 10874 10870 10867 10864
10993 10994 10995 10996 10996 10997 10997 10997 10997 10998 10998 10997 10997 10997 10997 10996 10996 10996 10996 10996 10995 10994 10992 10991 10990 10989 10988 10986 10985 10983 10981 10980 10978 10975 10972 10968 10965 10961 10959 10957 10955 10953 10951 10949 10947 10945 10942 10940 10937 10933 10929 10925 10921 10918 10915 10912 10910 10909 10908 10907 10907 10906 10905 10905 10904 10903 10902 10901 10900 10898 10896 10894 10893 10891 10889 10888 10886 10884 10882 10879 10875 10870 10867 10865 10862
10991 10991 10992 10993 10993 10994 10994 10994 10994 10994 10995 10995 10994 10994 10994 10994 10993 10993 10992 10992 10992 10991 10989 10988 10986 10985 10983 10982 10981 10979 10978 10976 10974 10972 10969 10966 10963 10959 10956 10954 10952 10950 10948 10946 10944 10941 10939 10936 10933 10931 10927 10923 10919 10916 10913 10911 10909 10908 10907 10906 10906 10905 10904 10903 10903 10902 10901 10900 10898 10897 10895 10893 10890 10888 10886 10884 10883 10881 10879 10877 10873 10868 10864 10861 10859
10988 10989 10989 10990 10990 10990 10991 10991 10991 10991 10991 10992 10992 10991 10991 10991 10990 10989 10989 10988 10988 10987 10986 10985 10983 10981 10979 10978 10977 10976 10974 10972 10970 10968 10965 10963 10960 10958 10955 10953 10950 10948 10945 10943 10941 10939 10936 10933 10930 10928 10925 10922 10918 10915 10912 10910 10908 10907 10906 10905 10904 10903 10902 10902 10902 10901 10900 10898 10896 10895 10893 10890 10888 10885 10882 10880 10879 10877 10875 10873 10870 10866 10861 10858 10854
10985 10986 10986 10986 10986 10987 10987 10988 10988 10988 10988 10989 10989 10988 10988 10988 10987 10986 10986 10985 10984 10983 10983 10982 10980 10977 10976 10974 10973 10972 10970 10969 10967 10964 10962 10960 10958 10956 10954 10951 10948 10946 10943 10940 10939 10937 10934 10930 10927 10925 10922 10920 10916 10913 10911 10909 10907 10906 10905 10905 10903 10902 10901 10900 10899 10899 10897 10895 10893 10891 10890 10887 10885 10882 10879 10876 10874 10873 10871 10868 10866 10863 10858 10853 10849
10982 10983 10983 10983 10983 10984 10984 10985 10985 10985 10985 10985 10985 10985 10984 10984 10984 10983 10983 10982 10981 10979 10978 10977 10976 10974 10972 10971 10970 10968 10967 10965 10963 10961 10959 10958 10956 10954 10952 10950 10947 10944 10940 10937 10936 10934 10932 10928 10925 10923 10920 10918 10914 10912 10910 10908 10906 10905 10904 10904 10903 10902 10900 10899 10897 10896 10895 10893 10890 10888 10886 10884 10882 10879 10877 10874 10871 10868 10866 10864 10862 10859 10854 10848 10844
10979 10980 10980 10980 10980 10981 10981 10982 10982 10982 10982 10982 10982 10982 10981 10980 10980 10980 10980 10979 10977 10976 10974 10973 10971 10970 10968 10967 10966 10965 10963 10962 10960 10958 10956 10955 10953 10952 10950 10948 10945 10941 10938 10935 10933 10932 10929 10925 10922 10920 10918 10916 10913 10910 10908 10906 10905 10904 10903 10902 10902 10901 10899 10898 10896 10894 10893 10891 10888 10885 10883 10882 10879 10876 10874 10871 10868 10865 10862 10859 10857 10854 10850 10844 10839
10975 10976 10977 10977 10977 10977 10978 10978 10979 10979 10979 10979 10979 10978 10977 10976 10976 10976 10976 10975 10974 10972 10971 10969 10967 10965 10964 10963 10962 10961 10960 10959 10957 10954 10953 10951 10950 10948 10947 10944 10942 10938 10934 10932 10931 10930 10927 10924 10920 10917 10916 10914 10911 10909 10907 10905 10903 10902 10901 10900 10899 10898 10897 10895 10893 10891 10889 10888 10886 10883 10881 10879 10876 10873 10871 10868 10864 10861 10858 10854 10852 10850 10846 10840 10836
10971 10972 10973 10974 10974 10974 10974 10974 10975 10975 10975 10975 10975 10975 10974 10973 10971 10971 10971 10970 10970 10969 10968 10966 10964 10962 10960 10959 10958 10958 10957 10955 10953 10951 10949 10948 10946 10944 10942 10940 10938 10934 10929 10929 10929 10928 10924 10921 10918 10915 10914 10912 10910 10907 10905 10903 10901 10900 10898 10896 10894 10893 10893 10891 10888 10887 10885 10884 10883 10880 10878 10876 10874 10870 10867 10864 10861 10858 10855 10851 10848 10845 10842 10837 10833
10968 10969 10969 10969 10969 10970 10970 10970 10971 10971 10972 10971 10971 10971 10971 10970 10968 10966 10966 10965 10965 10965 10964 10962 10961 10959 10958 10956 10955 10954 10953 10952 10950 10947 10946 10944 10942 10940 10938 10936 10933 10929 10924 10925 10926 10924 10920 10918 10915 10913 10912 10910 10908 10906 10903 10901 10898 10897 10895 10892 10890 10889 10888 10886 10884 10882 10880 10878 10878 10876 10873 10872 10870 10867 10864 10861 10858 10855 10852 10848 10844 10842 10839 10835 10831
10964 10964 10964 10964 10965 10965 10966 10967 10967 10967 10968 10968 10967 10968 10967 10966 10965 10963 10962 10961 10960 10960 10959 10958 10956 10955 10954 10953 10952 10950 10949 10948 10946 10944 10942 10941 10939 10937 10935 10932 10929 10924 10919 10920 10922 10919 10917 10915 10913 10911 10910 10908 10906 10903 10900 10897 10894 10893 10891 10889 10887 10885 10884 10881 10879 10877 10875 10872 10872 10871 10868 10866 10864 10862 10859 10857 10854 10851 10848 10844 10840 10838 10836 10833 10829
10958 10959 10960 10961 10961 10960 10961 10963 10963 10963 10963 10963 10963 10964 10963 10963 10962 10961 10959 10957 10956 10956 10955 10953 10952 10951 10950 10950 10949 10948 10946 10945 10944 10942 10940 10938 10936 10934 10932 10929 10925 10919 10915 10916 10917 10914 10913 10913 10911 10909 10906 10904 10902 10899 10896 10893 10890 10888 10887 10885 10883 10882 10880 10877 10875 10872 10869 10866 10866 10866 10863 10860 10858 10857 10853 10851 10849 10846 10843 10840 10836 10833 10832 10829 10826
10953 10954 10955 10957 10957 10956 10956 10958 10959 10960 10959 10959 10959 10959 10959 10959 10959 10957 10956 10954 10953 10953 10952 10951 10949 10947 10947 10947 10946 10945 10943 10942 10941 10940 10938 10936 10933 10931 10930 10926 10921 10915 10911 10912 10911 10908 10908 10909 10908 10905 10902 10899 10896 10893 10890 10886 10883 10882 10882 10880 10879 10877 10875 10873 10870 10868 10864 10861 10860 10861 10859 10855 10854 10853 10849 10846 10844 10842 10839 10836 10833 10830 10828 10826 10822
10948 10949 10950 10951 10952 10952 10952 10952 10954 10955 10955 10955 10955 10955 10955 10955 10955 10954 10953 10951 10951 10951 10950 10948 10947 10945 10945 10945 10944 10943 10941 10939 10939 10937 10935 10933 10931 10928 10927 10924 10918 10911 10908 10907 10905 10902 10902 10903 10901 10898 10896 10892 10888 10885 10883 10880 10876 10876 10876 10876 10874 10872 10869 10867 10865 10864 10861 10857 10856 10857 10856 10852 10851 10850 10846 10843 10840 10838 10835 10832 10829 10826 10824 10822 10819